Tracking 31027 objects as of 19-Jul-2025
HD Live streaming from Space Station
objects crossing your sky now

STARLINK-31125

Track STARLINK-31125 now!
10-day predictions
STARLINK-31125 is classified as:


NORAD ID: 58678
Int'l Code: 2023-211M
Perigee: 489.4 km
Apogee: 491.0 km
Inclination: 43.0 °
Period: 94.3 minutes
Semi major axis: 6861 km
RCS: Unknown
Launch date: December 29, 2023
Source: United States (US)
Launch site: AIR FORCE EASTERN TEST RANGE (AFETR)
Your satellite tracking list
LANDSAT 5
Track 1 satellite(s)




NASA's NSSDC Master Catalog

Two Line Element Set (TLE):
1 58678U 23211M   25199.73732314  .00000991  00000-0  45544-4 0  9994
2 58678  43.0000 326.6062 0001165 249.9462 110.1265 15.27569839 87856
Source of the keplerian elements: AFSPC